Regional Weather Roundup
Issued by NWS

Home | Current Version | Previous Version | Graphics & Text | Print | Product List | Glossary On
Versions: 1 2 3 4 5 6 7 8 9 10 11 12 13 14 15 16 17 18 19 20 21 22 23 24 25 26 27 28 29 30 31 32 33 34 35 36 37 38 39 40 41 42 43 44 45 46 47 48 49 50
733
ASUS44 KMEG 230110
RWRTN
TENNESSEE HOURLY STATE WEATHER ROUNDUP
NATIONAL WEATHER SERVICE MEMPHIS TN
800 PM CDT SUN OCT 22 2017

TNZ002-004-019-021-049-052-054-088>092-230200-
WEST TENNESSEE

CITY           SKY/WX    TMP DP  RH WIND       PRES   REMARKS
MEMPHIS INTL   LGT RAIN  61  60  97 NW13G21   29.98S
NWS MEMPHIS      N/A     62 N/A N/A MISG        N/A
JACKSON        RAIN      65  65 100 W16G23    29.95R FOG
DYERSBURG      RAIN      60  59  96 NW10G20   29.95R
SOMERVILLE     CLOUDY    63  63 100 W12G17    29.96S FOG
COVINGTON      CLOUDY    64  63  94 W16       29.96R FOG
UNION CITY     CLOUDY    68  66  94 SE5       29.90F FOG
BOLIVAR        CLOUDY    64  63  94 W10G16    29.95S FOG
HUNTINGDON     CLOUDY    68  68 100 SE7       29.92F
LEXINGTON      CLOUDY    68  68 100 S7        29.93F FOG
SELMER         CLOUDY    68  66  94 S9G17     29.94S FOG
SAVANNAH       CLOUDY    70  68  94 S10       29.94R
$$

TNZ008-025-027-028-033-062-065-066-230200-
NORTH MIDDLE TENNESSEE

CITY           SKY/WX    TMP DP  RH WIND       PRES   REMARKS
NASHVILLE      CLOUDY    74  61  63 SE9       29.99F
PORTLAND       MOCLDY    72  61  68 S9G15     30.00S
CLARKSVILLE    CLOUDY    72  61  68 S5        29.96S
SMYRNA         CLOUDY    72  62  71 SE9       30.01F
COOKEVILLE     PTCLDY    70  61  73 SE7G14    30.06S
GALLATIN       PTCLDY    73  61  64 SE7       30.03F
CROSSVILLE     MOCLDY    66  57  72 VRB5      30.13F
$$

TNZ061-075-076-078-094-096-097-230200-
SOUTH MIDDLE TENNESSEE

CITY           SKY/WX    TMP DP  RH WIND       PRES   REMARKS
FAYETTEVILLE   PTCLDY    72  64  78 SE13      30.02F
TULLAHOMA      PTCLDY    70  59  68 SE9       30.05F
WINCHESTER     CLEAR     72  63  73 SE9         N/A
COLUMBIA       CLOUDY    73  63  68 SE9G16    29.96F
SHELBYVILLE    PTCLDY    72  63  73 SE9       30.01F
$$

TNZ017-018-042-046-047-230200-
NORTHEAST TENNESSEE

CITY           SKY/WX    TMP DP  RH WIND       PRES   REMARKS
TRI CITIES     MOCLDY    66  54  65 CALM      30.22S
ELIZABETHTON   MOCLDY    68  54  60 E9G16     30.23F
$$

TNZ012-013-036-069-073-074-230200-
CENTRAL EAST TENNESSEE

CITY           SKY/WX    TMP DP  RH WIND       PRES   REMARKS
KNOXVILLE      MOCLDY    68  58  70 E6        30.11F
OAK RIDGE      PTCLDY    65  62  90 CALM      30.12F
DOWNTOWN KNOXV CLEAR     64  61  88 CALM      30.13F
GATLINBURG     CLOUDY    68  55  64 CALM      30.14F
MORRISTOWN     CLEAR     68  55  64 SE8G15    30.16F
JACKSBORO      MOCLDY    63  59  88 CALM      30.16F
$$

TNZ083-085-099-230200-
SOUTHEAST TENNESSEE

CITY           SKY/WX    TMP DP  RH WIND       PRES   REMARKS
CHATTANOOGA    MOCLDY    72  60  66 SE7       30.09S
DAYTON         CLEAR     66  63  88 CALM      30.09S
$$

SKY/WX REPORTED AS FAIR MEANS FEW OR NO CLOUDS BELOW
12 THOUSAND FEET.





USA.gov is the U.S. government's official web portal to all federal, state and local government web resources and services.